Weather in Arua

Uganda     3°01′18″N   30°54′22″E
temp.,
°C
wind,
m/s
gust,
m/s
humid.,
%
clouds,
%
prec.,
mm/h
press.,
hPa
HPBL,
m
4 march, thu
thu400:00+26wnw223381 0.0 100829
03:00+26ssw123483 0.0 100729
06:00+23w124152 0.0 100823
09:00+29ne232976 0.0 1010761
12:00+34e442176 0.0 10082612
15:00+34ene432179 0.0 10042935
18:00+33ne542378 0.0 10032230
21:00+27wsw113248 0.0 100624
5 march, fri
fri500:00+27wsw013175 0.0 100824
03:00+24ese113867 0.0 100824
06:00+22s224511 0.0 100824
09:00+28se36358 0.0 1010569
12:00+34e562556 0.0 10082335
15:00+36ne452056 0.0 10043265
18:00+31ne2327100 0.0 1003443
21:00+28n123479 0.1 100730
6 march, sat
sat600:00+26ene243896 0.1 1009107
03:00+23sse235190 0.4 100931
06:00+22ssw235987 0.1 100925
09:00+26se364694 0.1 1011459
12:00+33e462891 0.0 10101992
15:00+33se352395 0.0 10052751
18:00+33nne4422100 0.0 10051794
21:00+27w113189 0.0 100824
7 march, sun
sun700:00+26sw123559 0.0 101024
03:00+23sse246173 0.0 100987
06:00+21ssw226283 0.0 100925
09:00+25ese355866 0.0 1012352
12:00+33se552778 0.0 10101243
15:00+35n332289 0.0 10062877
18:00+29sw2337100 0.2 1005223
21:00+25w334698 0.2 100842
8 march, mon
mon800:00+25w474485 0.0 1009127
03:00+22wsw354970 0.0 100886
06:00+20sw11620 0.0 100923
09:00+28se22371 0.0 1011309
12:00+32ne343140 0.0 10101783
15:00+29se444070 0.1 10061443
18:00+30nw453099 0.1 10061396
21:00+24w334767 0.1 100745